Location: El Águila
(10.4167°N, 66.7167°W)
Time: 07:23:45
(UTC+00:00)

Daily predictions for brighter satellites

Satellite Brightness Start Highest point End
(mag) Time Altitude Azimuth Time Altitude Azimuth Time Altitude Azimuth
ARIANE 5 R/B 3.1 22:24:46 10° WSW 22:27:08 45° S 22:34:39 10° ESE
Cosmos 2278 4.1 22:26:46 10° SSW 22:32:26 72° WNW 22:38:06 10° N
Cosmos 2297 Rocket 2.2 22:27:13 10° N 22:32:50 69° ENE 22:38:26 10° SSE
SL-16 R/B 2.5 22:29:08 10° S 22:34:28 44° ESE 22:39:47 10° NE
ASTEX 1 3.5 22:30:26 10° NNE 22:35:19 59° E 22:40:14 10° S
Cosmos 968 Rocket 3.8 22:32:55 10° S 22:37:54 45° ESE 22:42:53 10° NNE
NOAA 6 4.0 22:34:30 10° SSE 22:39:38 85° ENE 22:44:46 10° N
NOSS 3-1 (C) 4.5 22:33:04 10° NNW 22:41:42 61° ENE 22:50:51 10° SE
Cosmos 1805 3.8 22:39:37 10° SSW 22:43:26 62° W 22:47:15 10° N
Lacrosse 4 Rocket 2.0 22:41:20 10° S 22:44:55 32° ESE 22:48:31 10° NE
Okean 2 3.7 22:43:21 10° NNE 22:47:16 44° E 22:51:12 10° SSE
In-Cosmos 22 4.2 22:42:31 10° N 22:47:48 81° W 22:53:10 10° S
Cosmos 1733 Rocket 4.2 22:47:07 10° SSW 22:51:22 48° W 22:55:38 10° N
Tiangong -1.6 22:51:38 10° SSW 22:54:36 41° SE 22:56:51 16° ENE
ARIANE 2 DEBRIS 3.6 22:51:22 10° WSW 22:54:52 38° S 22:57:28 12° ESE
Cosmos 1674 2.7 22:51:55 10° N 22:55:36 78° W 22:59:15 10° S
Cosmos 540 Rocket 4.2 22:52:26 10° NNE 22:56:54 31° ENE 23:01:21 10° SE
Cosmos 468 Rocket 4.2 22:52:00 10° N 22:56:58 48° ENE 23:02:00 10° SSE
Ariane H10-3 4.3 22:58:08 10° S 22:59:42 13° SSE 23:01:48 10° ESE
Cosmos 1766 3.1 22:56:46 10° S 23:00:37 85° E 23:04:30 10° N
Ariane H10-3 4.3 22:51:45 10° W 23:01:47 24° SSW 23:05:12 10° SSE
Cosmos 2221 Rocket 4.0 23:02:00 10° NNE 23:06:17 42° E 23:10:35 10° SSE
Cosmos 2333 Rocket 3.5 23:03:02 10° SE 23:06:53 18° ESE 23:07:29 18° E
BREEZE-M DEB (TANK) 3.3 23:05:39 10° S 23:07:43 26° ESE 23:08:11 25° ESE
Aureole 3 Rocket 4.3 23:01:30 10° NNE 23:08:03 40° E 23:12:51 10° SSE
SL-14 R/B 3.8 23:04:50 10° NNE 23:08:30 35° E 23:12:11 10° SSE
Cosmos 1092 Rocket 4.4 23:04:01 10° SSE 23:09:50 39° E 23:15:37 10° NNE
Cosmos 2219 3.1 23:08:30 10° NNW 23:14:15 82° ENE 23:19:58 10° SSE
SWIFT 2.6 23:10:18 10° SW 23:14:25 52° SSE 23:16:18 28° E
Cosmos 2263 Rocket 3.8 23:11:00 10° NNE 23:13:16 16° NE 23:13:16 16° NE
COSMOS 2455 3.8 23:11:38 10° SSE 23:16:26 25° ESE 23:17:37 24° E
Cosmos 841 Rocket 4.2 23:12:13 10° NNE 23:16:37 29° ENE 23:18:11 24° ESE
PSLV R/B 3.6 23:14:40 10° SSE 23:18:27 86° E 23:22:09 10° N
Cosmos 1626 4.3 23:17:53 10° NNW 23:21:00 27° W 23:24:06 10° SSW
Cosmos 2360 Rocket 2.3 23:16:11 10° S 23:21:38 51° ESE 23:27:04 10° NNE
Cosmos 1763 Rocket 3.8 23:17:13 10° NNW 23:22:16 66° WSW 23:27:23 10° S
NOSS 3-3 (A) 3.4 23:18:27 10° SSW 23:23:41 77° ESE 23:29:06 10° NNE
NOSS 3-3 (C) 3.4 23:18:34 10° SSW 23:23:47 76° ESE 23:29:12 10° NNE
USA 229 DEB 4.4 23:17:06 10° N 23:24:22 41° ENE 23:29:17 21° ESE
USA 229 4.4 23:17:13 10° N 23:24:28 40° ENE 23:29:14 21° ESE
Meteor 1-15 Rocket 4.3 23:18:50 10° S 23:24:29 82° W 23:30:04 10° N
Cosmos 2279 Rocket 4.1 23:18:22 10° N 23:24:36 79° W 23:30:51 10° S
Cosmos 1470 2.6 23:23:39 10° S 23:27:29 64° E 23:31:17 10° NNE
COBE Rocket 3.8 23:25:44 10° SSE 23:30:46 77° E 23:35:39 10° N
Cosmos 2082 3.7 23:26:00 10° N 23:31:35 55° ENE 23:35:54 17° SSE
Cosmos 2180 Rocket 4.5 23:28:51 10° N 23:35:10 89° W 23:41:34 10° S
Hubble Space Telescope 3.1 23:34:02 10° N 23:35:12 11° NNE 23:35:12 11° NNE
Landsat 5 3.5 23:36:10 10° N 23:40:34 88° WNW 23:44:50 10° SSW
Cosmos 1486 Rocket 3.9 23:39:31 10° S 23:44:47 81° ESE 23:49:22 14° NNE
GPS 2-17 Rocket1 4.5 23:41:52 10° WNW 23:45:24 24° N 23:45:55 23° N
Cosmos 1782 Rocket 3.5 23:41:34 10° S 23:45:53 80° W 23:50:12 10° N
Cosmos 2333 4.3 23:40:42 10° S 23:46:15 50° ESE 23:46:17 50° ESE
Okean O Rocket 1.4 23:46:50 71° NE 23:46:50 71° NE 23:50:57 10° N
CZ-3C R/B 3.0 23:43:22 10° WNW 23:47:03 19° NNW 23:47:10 19° N
Cosmos 1627 Rocket 4.3 23:41:29 10° S 23:47:37 82° E 23:53:44 10° N
Cosmos 1428 Rocket 4.4 23:42:56 10° S 23:49:03 84° W 23:55:13 10° N
Cosmos 2322 Rocket 3.3 23:43:55 10° SW 23:49:17 44° WNW 23:54:41 10° N
YAOGAN 1 2.7 23:46:17 10° S 23:50:35 72° W 23:54:52 10° NNW
CZ-4B R/B 3.2 23:45:39 10° S 23:50:55 75° WSW 23:56:15 10° NNW
